Hourly Weather Roundup
Issued by NWS Central Illinois

Home | Current Version | Previous Version | Text Only | Print | Product List | Glossary On
Versions: 1 2 3 4 5 6 7 8 9 10 11 12 13 14 15 16 17 18 19 20 21 22 23 24 25 26 27 28 29 30 31 32 33 34 35 36 37 38 39 40 41 42 43 44 45 46 47 48 49 50
000
NZUS43 KILX 270510
HWRILX

AREA WEATHER ROUNDUP
NATIONAL WEATHER SERVICE, LINCOLN IL
1200 AM CDT WED AUG 27 2014


CITY           SKY/WX    TMP DP  RH WIND       PRES   REMARKS
BLOOMINGTON    MOCLDY    71  65  81 W5        30.12R
CHAMPAIGN      CLOUDY    72  66  81 CALM      30.11R
DECATUR        CLOUDY    71  66  84 SW6       30.10R
FLORA          MOCLDY    74  72  92 NW3       30.11R
GALESBURG      CLOUDY    70  68  92 CALM      30.12R
JACKSONVILLE   PTCLDY    77  69  77 S8        30.11F
LACON          MOCLDY    73  68  84 CALM      30.10R
LAWRENCEVILLE  MOCLDY    74  72  93 CALM      30.09R
LITCHFIELD     CLOUDY    73  66  79 S14       30.12F
$$


CITY           SKY/WX    TMP DP  RH WIND       PRES   REMARKS
LINCOLN        MOCLDY    74  66  75 W3        30.06R
MACOMB         MOCLDY    70  69  96 CALM      30.13R
MATTOON        CLOUDY    75  68  78 SW6       30.08F
MT CARMEL AP   PTCLDY    73  72  94 CALM      30.09R FOG
OLNEY-NOBLE AP PTCLDY    72  72 100 CALM      30.10R
PARIS          CLOUDY    71  71  99 CALM      30.11R
PEORIA         PTCLDY    79  72  79 SW3       30.10S HX  82
PONTIAC        CLOUDY    77  75  94 CALM      30.11R FOG
RANTOUL        CLOUDY    74  67  80 CALM      30.11R
ROBINSON       CLOUDY    72  71  97 CALM      30.10R
SPRINGFIELD    CLOUDY    75  67  76 SW12      30.09S
TAYLORVILLE    CLOUDY    70  64  83 SW9       30.08F
$$

...REGIONAL REPORTS...


CITY           SKY/WX    TMP DP  RH WIND       PRES   REMARKS
CHICAGO O`HARE CLOUDY    72  64  76 N3        30.12R
KANKAKEE       MOCLDY    74  72  93 N3        30.10R
MOLINE         PTCLDY    70  64  81 CALM      30.11R
MOUNT VERNON   PTCLDY    73  70  88 CALM      30.11R
PITTSFIELD     CLOUDY    77  73  85 CALM      30.12S
QUINCY         CLEAR     73  70  90 NE3       30.11R
ROCKFORD       PTCLDY    69  63  81 NE3       30.13R
$$


CITY           SKY/WX    TMP DP  RH WIND       PRES   REMARKS
BURLINGTON     PTCLDY    72  68  87 CALM      30.12R
CEDAR RAPIDS   MOCLDY    68  66  93 N6        30.13R
DES MOINES     MOCLDY    73  64  73 NE5       30.13S
KIRKSVILLE     MOCLDY    72  68  87 NE6       30.14R
OTTUMWA        PTCLDY    70  65  84 N6        30.13R
ST LOUIS       CLOUDY    79  67  66 NE16G26   30.14R HX  81
$$


CITY           SKY/WX    TMP DP  RH WIND       PRES   REMARKS
TERRE HAUTE    CLOUDY    71  69  93 CALM      30.10R
EVANSVILLE     CLEAR     78  72  81 CALM      30.08R HX  80
INDIANAPOLIS   CLOUDY    73  69  87 NW3       30.09R
LAFAYETTE      CLOUDY    69  68  96 CALM      30.08F
MADISON        MOCLDY    63  58  83 NW3       30.14R
MILWAUKEE      PTCLDY    67  60  78 NW6       30.12S
$$





USA.gov is the U.S. government's official web portal to all federal, state and local government web resources and services.